Location: Jackson Park
(37.2862°N, 79.9123°W)
Time: 20:44:08
(UTC+00:00)

S-56A Canister/Altair - Pass Details

Date: 18 May 2026
Orbit: 633 x 2484 km, 38.9° (Epoch: 6 June)

Event Time Altitude Azimuth Distance (km) Brightness Sun altitude
Rises 21:58:47 0° 200° (SSW) 4,124 11.4 26.9°
Reaches altitude 10° 22:03:27 10° 177° (S) 2,769 10.4 26.0°
Maximum altitude 22:06:34 14° 148° (SSE) 2,257 9.7 25.4°
Drops below altitude 10° 22:09:17 10° 117° (ESE) 2,343 9.6 24.8°
Sets 22:12:38 0° 91° (E) 3,080 10.1 24.2°
